STARLINK-11497, 62470

Orbit data source: Space-Track

STARLINK-11497, 62470 is a payload satellite owned by SpaceX/Seattle (US) in LEO that was launched on Tue, 31 Dec 2024 UTC via an FALCON 9 launch vehicle from the Air Force Eastern Test Range (AFETR). Payload-class satellites include a variety of spacecraft equipped with specific instruments for various scientific and technological missions. These include communications satellites like Starlink; space stations such as the ISS; scientific satellites like the Hubble; Earth observation satellites from companies like Planet Labs, Umbra, and HawkEye 360; GPS; miniature CubeSats for education and research; and military/defense satellites.

Loading next visibility...
Identifier
62470, 2024-254J
Orbit
LEO
Country
Flag of USUS
Related business
Manufacturer
SpaceX/Seattle
Mission
Operational Commercial Communications
Bus & Motor
STARLINK V2MD, Unknown motor
Mass
960 kg wet, ~910 kg dry
Launch date (UTC)
2024-12-31 (1 year ago)
Launch vehicle
FALCON 9
Launch site
Air Force Eastern Test Range (AFETR)
Object type
Payload
Rocket body
Debris
Shape & HBR
Box + 2 Pan, 18.1 m
Radar Cross Section
36.964 m², Large (>1 m²)

Expand to show TLE details & history
Last TLE update: 5 days ago

TLE from 5 days ago
0 STARLINK-11497
1 62470U 24254J   26153.91298119  .00165572  00000-0  12707-2 0  9998
2 62470  43.0008  69.3730 0001157 274.5395  85.5340 15.70795398 82800
Epoch: 2026-06-02T21:54Z
TLE epoch observation values (Epoch: 2026-06-02T21:54:41.574Z)
Latitude
-0.00006°
Longitude
-150.67943°
Altitude
356.333 km
Speed
7.697 km/s
True Right ascension
04h 37m 29s
True Declination
0° 00' 00"
Sunlit
Object was in daylight at epoch
Visualization orbit readout
Latitude
Unknown
Longitude
Unknown
Altitude
Unknown
Speed
Unknown
Apparent Right ascension
Unknown
Apparent Declination
Unknown
Sunlit
N/A
Visualization observer readout
Local Sidereal Time
11:58:44
Azimuth
Unknown
Elevation
Unknown
Doppler factor
Unknown
Orbital elements
Apogee altitude
359.383 km
Perigee altitude
357.825 km
Semi-major axis
6,736.741 km
Eccentricity
0.00012
Inclination
43.0008°
RAAN
69.373°
Arg. of periapsis
274.5395°
True anomaly
85.54722°
Mean anomaly
85.534°
Eccentric anomaly
85.54061°
Mean motion
3.92526 °/min
Orbital period
91.71 mins
BSTAR
0.0012707
Loading maneuver chart data...
Computing Atmospheric mass density...
Loading historical data...
Loading historical data...
Loading historical data...
Loading historical data...
Loading historical data...
Loading historical data...
Loading historical data...

Documentation

Showing up to 5 results
|